Location: Estherville
(43.4020°N, 94.8330°W)
Time: 10:13:54
(UTC-05:00)

ISS - Visible Passes

Search period start: 19 October 2019 00:00
Search period end: 29 October 2019 00:00
Orbit: 411 x 421 km, 51.6° (Epoch: 19 October)

Date Brightness Start Highest point End Pass type
(mag) Time Alt. Az. Time Alt. Az. Time Alt. Az.
23 Oct -1.0 06:46:37 10° S 06:49:04 19° SE 06:51:32 10° E visible
24 Oct -0.6 05:59:35 10° SSE 06:00:39 11° SE 06:01:45 10° ESE visible
25 Oct -2.9 06:45:04 10° SW 06:48:19 49° SE 06:51:35 10° ENE visible
26 Oct -2.0 05:58:24 21° S 05:59:47 29° SE 06:02:45 10° ENE visible
27 Oct -0.8 05:12:21 15° ESE 05:12:21 15° ESE 05:13:37 10° E visible
27 Oct -3.8 06:45:16 17° WSW 06:47:43 66° NNW 06:51:04 10° NE visible
28 Oct -3.8 05:59:03 77° SE 05:59:03 77° SE 06:02:25 10° ENE visible
